Theta_e
355 355 355 355 356 355 354 356 356 354 354 357 359 357 356 356 357 358 359 361 363 363 363 361 361 360 356 354 353 351 347 344 344 343 343 342 342 345 350 350 349 350 351 353 354 353 351 350 351 352 354 356 357 358 357 358 359 359 359 359 358 357 357
354 352 353 356 357 356 356 356 357 356 356 358 359 358 357 356 358 358 359 362 363 363 364 362 362 361 358 355 353 351 349 346 345 344 344 344 342 343 349 352 351 350 349 349 351 352 351 350 350 350 352 355 357 359 359 359 359 360 360 359 359 359 359
351 351 352 356 357 357 357 356 356 356 355 355 355 357 357 357 357 359 360 363 364 364 365 364 363 364 361 357 355 353 350 349 347 345 345 345 345 344 346 350 351 351 348 345 345 349 351 352 351 351 351 354 357 360 359 360 360 361 360 359 359 359 361
352 352 353 355 356 355 356 356 357 357 356 354 354 357 358 358 358 359 360 362 365 364 365 365 364 365 363 360 358 357 354 352 350 347 346 346 345 344 344 347 350 351 349 346 344 345 349 352 353 352 352 353 356 358 358 358 360 360 360 359 359 359 359
352 351 352 354 354 355 354 355 357 360 359 356 355 357 359 358 357 358 359 362 364 365 365 365 364 366 365 363 361 360 358 355 353 350 348 347 347 345 343 346 348 349 350 349 346 343 345 350 354 353 353 353 354 355 356 357 358 360 360 359 359 359 359
351 350 353 355 355 355 355 354 358 361 359 357 356 359 359 359 358 359 359 362 365 365 365 366 365 364 365 364 363 363 360 358 355 353 351 349 349 347 345 345 348 348 349 349 349 346 343 346 352 354 355 355 355 354 355 356 358 359 359 359 360 359 359
351 350 353 356 354 353 354 356 359 358 357 357 359 360 359 358 358 359 360 362 363 365 366 366 365 364 366 366 364 363 361 360 358 355 355 353 351 350 350 348 347 348 348 348 350 349 345 344 348 353 356 356 357 356 354 356 357 358 358 358 359 360 359
350 351 352 355 353 353 355 356 356 357 358 360 359 359 358 356 357 357 357 361 363 365 365 366 366 365 366 366 363 363 363 362 360 357 357 356 353 352 352 351 349 348 349 349 349 350 350 346 346 350 354 357 358 357 355 354 355 356 358 359 359 359 359
347 349 350 353 353 352 353 354 355 358 359 359 358 358 357 356 357 356 357 359 362 365 365 365 367 366 366 366 363 362 364 363 362 360 359 359 357 354 353 353 351 349 349 350 349 349 350 350 348 349 351 355 358 358 356 354 354 356 357 358 359 360 359
343 348 350 353 352 353 353 354 356 359 360 360 359 358 359 358 357 358 358 360 362 365 366 367 366 367 367 365 363 363 364 364 363 361 361 360 359 356 354 354 353 350 350 350 351 350 350 351 352 351 351 353 357 358 356 354 354 355 356 357 358 359 360
346 353 353 353 354 354 353 352 357 361 361 362 361 360 360 359 360 359 359 359 360 362 365 367 366 367 368 365 363 363 364 363 361 361 361 360 358 356 354 354 354 353 351 351 351 350 350 351 353 354 353 353 355 357 357 354 354 355 356 357 357 358 359
347 355 356 353 355 354 354 357 361 363 363 361 360 360 361 360 360 359 358 359 359 361 363 366 367 366 367 366 363 362 363 362 361 361 361 359 357 356 353 353 353 355 354 353 352 351 350 351 353 354 357 356 355 356 357 356 355 355 356 357 357 357 358
351 353 355 355 356 355 358 362 363 364 366 362 360 359 360 360 360 358 359 359 360 359 360 364 367 365 365 364 363 362 362 361 361 361 361 359 357 355 355 353 352 355 356 355 355 352 350 352 354 355 357 358 357 357 356 356 356 357 356 358 357 357 357
347 346 350 355 357 361 364 366 366 368 366 362 359 358 358 360 359 358 359 358 359 358 359 362 365 365 364 365 363 362 362 361 360 360 361 360 358 355 355 354 353 353 355 356 356 354 350 351 355 356 358 360 360 359 358 358 358 359 359 359 358 357 357
341 342 345 352 360 368 370 370 370 370 367 362 359 357 358 359 360 360 359 357 357 358 358 361 363 363 363 364 363 362 362 361 361 362 361 361 358 357 356 355 353 353 355 356 356 355 353 350 354 357 358 360 361 361 360 359 360 360 360 359 358 357 356
343 342 342 348 356 363 365 368 370 372 369 366 359 356 359 361 361 362 360 360 359 358 358 360 362 362 363 363 364 363 362 362 362 362 362 361 359 358 357 356 354 354 354 357 357 356 356 352 351 356 359 360 362 363 362 360 360 361 360 359 358 355 355
344 343 344 348 352 355 355 359 364 370 370 367 363 359 359 361 361 361 361 361 360 358 357 358 361 361 361 363 364 363 362 363 363 362 361 362 361 360 358 357 357 356 355 356 357 358 357 355 352 353 357 359 361 362 362 361 361 362 360 359 358 356 353
342 344 344 346 350 352 351 351 357 362 360 360 362 360 359 361 362 360 360 362 360 359 356 356 359 360 360 363 364 364 363 364 363 362 362 362 362 361 359 357 357 357 355 354 356 357 357 356 355 352 355 359 360 362 363 363 361 361 361 360 359 357 354
343 346 346 346 349 348 347 350 355 358 358 357 357 355 355 357 358 359 358 358 359 360 358 356 358 359 359 363 364 364 364 364 364 363 361 362 363 362 361 359 358 358 357 354 355 356 357 357 356 354 353 356 359 360 361 363 362 360 361 361 359 358 356
344 345 349 350 349 348 347 350 355 358 359 358 355 353 354 356 355 356 353 356 359 360 359 357 359 360 361 362 365 366 365 364 364 364 363 363 363 363 362 360 358 358 357 356 355 356 358 358 357 356 354 354 356 359 360 361 362 361 361 360 360 359 356
344 344 347 349 350 352 353 354 355 356 356 357 356 355 352 351 352 351 354 356 356 359 361 361 360 362 361 362 365 367 366 366 365 365 364 363 363 364 363 360 359 359 358 357 355 356 358 358 358 358 356 354 355 357 359 360 361 362 361 360 360 360 358
341 342 343 345 347 352 354 354 354 355 357 358 359 358 356 352 350 350 353 357 357 357 359 360 361 363 362 362 366 368 367 367 366 365 366 364 364 365 364 362 361 359 358 358 356 357 358 360 359 359 358 357 356 356 357 358 359 361 361 360 360 359 359
337 339 340 342 344 348 351 352 353 354 356 357 358 358 356 354 350 350 352 353 355 355 357 357 360 364 364 363 366 369 368 368 367 367 366 366 365 365 365 364 362 360 360 358 357 358 359 360 361 361 360 360 358 357 358 357 358 359 359 360 359 359 359
333 336 339 341 342 345 348 352 354 354 355 358 359 358 355 352 349 350 351 352 353 354 355 356 359 364 365 365 366 368 368 368 368 368 368 367 367 366 366 365 364 362 361 360 359 360 360 362 363 363 362 362 360 360 358 357 359 359 358 359 359 359 359
332 333 336 338 341 344 347 351 355 357 356 358 359 360 358 355 352 350 352 353 352 353 354 356 359 364 367 366 366 367 370 369 369 369 369 368 367 367 367 366 365 363 362 360 361 362 362 363 364 365 364 362 362 362 361 359 359 358 358 360 359 360 359
329 331 334 336 338 341 345 350 355 357 357 357 358 359 360 360 354 350 352 352 353 352 351 354 358 364 367 366 366 368 370 370 370 370 369 369 369 369 370 369 367 365 363 362 361 361 363 365 365 366 365 363 362 363 364 362 361 359 359 359 359 360 360
328 330 333 334 336 339 342 347 353 357 355 356 358 359 361 360 356 353 355 354 353 354 353 354 358 363 366 366 367 369 371 371 371 371 371 371 371 371 371 371 369 367 365 363 362 362 362 364 365 366 366 364 364 363 364 364 363 361 360 360 360 359 360
327 327 329 332 334 336 340 345 351 356 357 356 358 359 360 359 357 357 358 355 354 356 356 357 360 363 366 367 367 369 372 372 371 372 373 373 373 372 371 371 370 369 367 366 364 363 363 364 364 364 365 366 365 364 364 365 365 364 363 361 360 359 359
325 325 327 330 332 334 338 343 349 356 357 358 359 359 360 360 357 356 358 358 357 355 357 359 362 364 366 367 368 369 372 372 372 373 372 373 373 372 371 372 371 370 370 368 366 364 364 364 364 363 364 365 365 364 364 365 366 365 364 363 362 360 359
324 325 326 328 330 333 336 342 351 358 359 358 361 362 364 362 356 356 361 364 361 358 359 361 363 365 367 368 368 370 371 373 373 372 371 372 373 372 372 372 371 371 371 369 367 366 365 365 365 364 363 364 365 365 364 365 365 365 364 364 363 361 360
324 324 325 326 329 332 336 345 354 358 360 361 365 369 371 367 360 360 365 366 363 360 360 364 365 366 368 369 369 371 373 374 373 372 371 371 373 373 372 372 371 372 372 371 368 368 367 367 366 365 365 364 364 364 364 365 365 366 365 364 364 363 362
324 324 324 326 329 332 338 348 356 358 362 366 368 371 374 370 361 363 368 366 363 362 363 366 368 369 370 370 370 371 373 374 373 372 371 371 371 372 373 372 371 371 372 371 369 368 368 367 366 366 365 365 365 365 364 364 365 367 367 366 364 364 362
324 324 325 326 329 333 341 350 356 360 364 367 368 371 375 373 365 364 369 367 363 364 366 367 368 369 370 371 370 371 372 373 372 371 371 370 371 372 372 372 371 371 371 371 370 368 368 368 368 367 367 366 365 364 365 364 365 366 367 367 365 365 364
324 325 326 327 329 335 344 351 356 359 362 365 367 370 373 374 370 367 369 367 365 366 369 370 369 370 371 371 370 370 372 373 372 370 370 370 370 371 372 371 371 370 371 371 370 369 368 367 367 368 368 367 366 365 365 365 365 366 367 367 366 366 365
326 326 326 327 330 336 344 349 353 357 360 362 364 368 370 372 372 369 367 364 363 368 372 370 369 371 372 371 371 371 372 372 371 370 370 369 369 370 370 370 371 370 370 370 370 368 367 366 367 367 367 367 366 366 365 366 365 365 366 367 367 366 365
326 326 326 328 331 336 343 346 349 355 359 360 363 366 368 370 371 371 371 367 364 369 373 372 371 373 373 371 372 371 372 372 372 370 369 368 368 367 366 365 367 369 370 370 370 369 367 366 366 367 366 366 365 365 365 365 365 364 365 366 367 366 365
326 327 328 329 332 336 341 343 345 350 357 360 361 361 364 367 368 368 370 369 368 371 373 373 372 373 373 372 372 372 372 372 371 369 369 367 366 364 361 360 361 365 368 370 369 368 367 366 366 366 365 364 364 364 364 364 366 365 365 366 367 367 367
326 327 329 330 332 336 339 339 340 345 353 358 357 356 359 364 365 363 365 367 370 373 375 374 374 373 372 372 371 371 371 372 370 369 370 369 366 363 361 360 358 359 362 365 367 367 366 366 366 366 365 365 367 367 366 366 367 367 366 366 367 367 367
Wind_Speed
21 20 19 17 17 18 17 17 19 22 24 26 29 30 31 31 32 32 33 36 37 36 35 35 35 36 37 36 34 34 34 33 32 30 28 27 25 23 22 22 22 21 19 19 19 18 17 16 15 16 16 16 15 14 13 13 12 11 9 9 9 7 6
20 20 19 18 18 18 18 18 20 23 23 26 29 31 31 31 32 32 33 36 38 37 36 36 36 36 37 37 35 35 34 33 33 32 29 28 27 25 24 23 22 22 22 19 19 18 18 18 17 16 17 16 15 15 14 13 13 12 11 10 10 9 8
18 17 18 18 17 17 18 19 21 23 24 27 30 32 33 32 33 33 33 35 37 37 36 36 36 36 37 37 35 35 35 34 33 33 31 29 29 27 25 24 23 23 23 22 20 18 18 19 19 18 17 17 16 16 15 14 14 14 13 12 11 10 10
19 18 19 19 19 19 19 19 20 21 24 29 30 32 33 34 34 34 33 34 37 37 37 37 36 35 35 36 36 35 36 35 34 34 32 30 30 29 27 26 25 23 23 24 22 20 18 19 21 20 19 18 17 17 17 16 15 15 14 13 13 11 11
23 20 19 20 19 19 18 18 20 18 20 27 30 31 33 34 33 34 34 34 36 39 38 37 36 35 34 35 34 34 36 37 35 34 33 31 31 31 29 27 26 25 23 23 23 23 21 20 21 22 21 20 19 18 18 18 17 17 16 16 15 13 12
21 18 18 20 19 19 19 20 22 23 23 26 25 25 28 29 28 31 34 35 36 38 37 35 36 36 35 35 33 33 35 36 36 34 34 32 31 31 31 29 28 27 25 23 23 24 24 22 22 22 23 22 21 20 19 20 19 18 18 18 17 15 13
20 17 16 19 20 19 20 20 23 29 29 23 17 18 24 26 24 24 28 34 38 38 37 36 37 37 36 35 34 34 35 35 36 35 33 32 32 31 31 31 30 29 27 26 24 24 25 25 23 23 23 22 22 21 21 21 21 20 19 19 19 18 16
21 19 17 20 21 20 19 18 22 27 28 22 18 20 25 28 28 25 27 32 36 39 39 38 37 37 36 36 35 35 35 34 35 35 33 31 32 31 31 31 32 30 28 27 26 24 24 26 26 24 24 23 23 23 22 22 23 21 20 21 20 19 18
19 19 18 21 22 20 18 17 20 24 25 23 22 24 27 28 31 33 34 34 34 37 39 38 38 37 36 36 36 35 35 34 33 34 33 31 30 31 30 30 31 31 30 27 26 26 26 26 27 26 25 24 24 24 23 23 24 23 22 22 22 21 19
17 16 18 21 21 19 17 17 19 20 20 23 24 25 28 29 31 34 36 33 33 36 39 38 37 37 36 36 36 35 35 35 33 33 33 32 30 31 31 30 30 31 31 29 26 27 27 27 27 27 27 26 25 25 25 24 24 24 23 23 23 22 21
12 13 16 21 21 18 17 17 16 16 18 23 26 27 29 32 33 35 36 35 33 34 37 38 36 36 36 36 35 35 35 35 34 34 34 33 31 31 32 30 29 29 31 30 28 27 28 28 28 28 29 29 27 26 26 25 25 25 24 23 23 23 22
8 11 15 19 22 20 18 16 15 15 18 23 27 29 31 33 35 35 36 37 35 33 34 37 37 36 36 35 35 35 35 35 35 34 35 34 32 32 32 31 30 29 30 30 30 28 28 29 29 28 29 30 29 27 27 26 26 26 26 24 23 23 22
3 11 14 15 19 20 17 16 17 17 17 22 28 30 31 34 35 34 33 34 34 32 34 36 37 36 36 35 35 36 36 36 36 35 35 35 34 33 33 32 31 30 29 30 30 29 28 28 29 29 29 29 30 29 28 28 27 27 27 26 24 24 24
3 11 14 14 16 17 15 14 17 17 16 22 29 30 30 32 33 32 31 33 33 31 33 36 36 36 36 36 35 36 37 36 36 36 36 36 35 34 33 33 32 31 31 30 30 29 29 28 28 29 28 28 30 29 28 29 29 28 29 28 27 25 25
8 5 9 13 13 12 12 13 14 15 17 21 26 28 29 30 32 31 30 32 33 31 33 35 36 36 36 36 36 36 37 36 35 35 36 36 36 35 34 33 33 33 32 32 30 29 29 28 28 28 28 28 28 29 28 28 30 30 30 31 30 27 26
13 8 4 6 6 6 6 8 11 13 14 17 22 26 26 26 28 29 28 30 32 33 34 34 35 35 35 35 36 36 37 37 35 35 36 36 37 36 35 34 33 33 32 32 32 30 30 30 29 28 29 28 28 28 28 28 29 31 32 32 32 30 27
13 10 8 5 4 6 6 2 4 8 10 14 18 23 26 26 28 29 28 28 30 31 33 34 34 36 36 35 35 35 36 37 36 36 37 37 37 37 36 34 33 33 33 33 33 32 31 31 30 29 28 28 28 28 28 28 28 30 33 33 33 32 30
11 9 7 6 6 8 11 9 6 4 4 7 6 8 13 15 20 26 28 27 27 29 33 35 34 35 35 34 34 35 37 37 36 37 37 37 38 38 38 35 33 33 34 33 33 33 32 31 31 30 28 28 28 28 27 28 28 29 32 34 34 33 31
11 10 9 7 6 8 10 10 11 10 6 3 7 11 14 13 13 20 25 28 29 30 33 35 34 34 34 33 34 36 37 38 37 37 38 38 38 38 39 37 34 33 34 33 32 32 32 31 31 31 29 28 29 29 28 27 28 29 31 33 35 34 32
12 13 13 10 8 9 9 9 10 11 11 7 4 14 18 18 23 27 26 25 26 28 33 36 33 33 34 33 34 35 36 37 37 37 38 38 38 38 38 39 36 34 32 32 32 31 32 31 30 31 31 29 28 30 30 28 28 29 30 32 34 35 34
13 14 12 10 10 10 9 9 9 10 10 10 9 8 12 19 26 25 21 22 26 27 30 33 31 31 33 32 32 34 35 36 37 37 37 38 37 37 37 38 38 35 32 31 31 31 31 31 30 30 32 31 29 27 28 28 28 29 30 32 33 34 35
14 14 13 12 12 11 11 12 13 12 12 12 12 11 12 17 22 22 22 27 30 28 26 26 26 28 32 31 31 33 35 35 35 35 35 36 37 36 37 37 38 37 33 31 30 30 30 31 31 30 30 31 31 28 26 26 27 29 31 32 33 33 34
15 16 15 15 16 16 16 17 16 16 15 15 15 13 12 15 20 24 25 26 26 25 23 24 25 26 31 33 32 33 35 36 35 35 34 35 36 36 37 38 38 38 35 31 29 29 29 30 30 29 29 29 31 30 27 25 26 28 29 31 32 33 33
16 17 17 18 20 20 20 18 18 20 18 16 17 15 14 17 21 24 25 24 23 24 25 26 29 29 31 35 34 35 37 37 36 35 34 35 36 36 36 37 37 37 36 33 30 28 29 29 29 29 29 28 29 31 30 27 26 27 27 28 31 33 33
16 18 20 21 21 21 23 23 23 23 21 18 19 19 18 20 24 25 24 24 25 25 25 29 34 33 33 36 36 35 36 36 36 35 35 35 35 35 34 34 35 36 35 34 31 29 28 28 27 27 28 28 28 29 30 30 29 29 28 27 28 31 33
17 18 21 23 23 23 25 25 25 24 22 20 19 21 22 22 25 28 28 27 28 28 29 32 35 34 34 35 35 34 34 35 35 35 35 34 34 32 32 32 32 33 34 33 31 29 28 27 27 26 27 27 27 29 30 30 29 30 31 30 30 31 32
20 21 22 24 25 26 25 24 24 24 23 22 21 21 22 22 24 28 30 30 29 30 34 36 35 33 32 33 33 33 34 34 34 34 33 32 33 31 31 31 31 32 33 32 30 30 29 28 27 26 25 26 27 27 29 29 29 30 32 32 33 33 33
21 22 24 27 27 27 26 24 26 26 24 23 22 22 23 22 22 23 24 27 29 33 35 34 33 33 32 33 34 33 33 33 33 33 31 30 32 32 31 30 30 30 31 31 30 30 30 28 27 26 24 25 26 26 27 28 30 31 32 32 35 36 36
19 20 23 26 28 29 28 26 27 26 24 23 23 24 23 21 21 21 21 24 33 38 35 30 32 33 33 33 33 31 32 33 32 32 32 31 32 32 31 31 30 30 31 31 30 29 29 28 27 25 23 23 24 24 25 26 29 32 33 32 33 36 38
19 21 23 26 29 31 30 28 27 25 24 25 26 26 24 20 20 21 21 25 34 37 31 27 31 34 31 32 33 31 31 31 31 32 33 32 31 32 31 32 32 30 31 31 30 28 27 27 27 25 22 22 22 23 24 25 27 30 33 33 32 34 36
19 21 24 27 30 31 29 28 27 25 25 26 23 21 24 23 20 19 20 26 31 31 28 27 31 33 31 31 31 29 29 29 30 31 31 31 31 31 31 31 31 29 29 30 28 26 25 25 25 25 23 22 21 22 23 24 25 27 30 31 32 33 35
20 23 26 28 30 32 30 27 26 24 23 22 18 18 23 23 21 20 19 24 29 29 27 28 30 31 30 30 30 28 27 28 29 29 30 31 31 31 30 31 30 28 28 28 27 26 25 25 24 24 23 22 22 22 22 23 23 25 28 30 31 33 34
18 22 26 28 30 32 29 24 22 21 19 18 17 17 22 19 15 19 20 23 28 28 26 28 30 30 29 29 29 28 27 28 28 29 30 30 30 30 30 30 29 28 27 28 27 25 25 24 24 23 23 23 23 22 22 23 23 24 27 30 32 34 35
16 20 25 30 31 30 25 21 20 20 18 16 16 16 19 20 10 11 19 24 27 27 27 28 30 29 28 28 27 26 27 29 29 29 29 29 29 29 29 30 30 28 28 29 29 27 26 25 25 24 24 23 23 23 22 23 25 25 27 31 34 36 36
18 20 25 29 29 26 23 21 21 21 18 15 15 15 16 18 13 1 15 22 24 25 27 28 28 28 27 28 27 26 28 29 29 29 29 28 27 27 27 29 30 28 27 28 29 28 28 27 26 26 25 24 24 24 24 24 27 28 28 29 32 35 37
20 22 25 28 27 24 22 22 23 22 17 13 13 14 14 15 14 8 3 12 18 22 26 27 26 26 26 26 26 26 27 28 28 29 29 27 26 27 25 23 25 26 26 27 29 29 28 27 26 26 26 25 25 26 27 26 26 27 26 25 25 29 33
20 21 24 25 24 21 20 23 25 24 18 11 10 11 12 13 13 12 7 2 6 15 25 29 25 23 24 26 27 27 29 29 28 30 30 27 26 29 26 20 19 21 23 26 29 29 27 26 26 26 26 25 25 27 28 26 24 24 25 25 24 24 26
21 23 24 24 23 21 19 23 26 24 18 11 8 9 11 12 11 10 7 6 7 4 18 26 26 24 24 25 27 29 31 30 29 30 29 26 27 30 29 24 20 16 15 20 26 28 26 25 25 25 27 26 24 24 26 24 21 21 23 24 23 22 22
Wind_Direction
180 184 188 187 187 189 192 193 196 199 192 183 188 195 195 192 190 189 187 185 185 186 187 187 187 188 189 190 192 193 193 194 194 194 193 194 193 191 190 191 193 195 196 198 201 204 205 206 204 200 202 206 207 208 209 208 206 204 208 211 208 204 202
181 183 187 184 186 190 190 191 198 199 189 183 188 195 197 194 191 190 186 184 186 187 187 188 188 189 191 192 192 193 194 195 195 195 195 196 196 195 195 195 197 199 200 201 203 204 204 205 207 203 201 204 205 205 206 209 208 204 207 212 211 210 210
180 180 184 186 186 189 191 191 198 199 193 190 191 194 196 195 194 193 187 184 186 188 189 190 190 190 191 191 192 193 195 195 195 195 195 196 197 198 199 200 201 204 205 206 205 203 202 203 206 205 202 201 202 202 203 206 209 206 206 210 213 213 214
179 182 183 189 187 188 192 190 192 196 194 194 194 192 194 195 194 193 190 186 186 188 190 190 190 191 191 190 191 193 194 194 195 196 196 197 199 200 201 202 204 206 208 210 208 205 203 202 202 204 205 203 202 202 202 203 208 209 207 208 211 215 217
180 180 178 188 188 186 192 191 188 187 187 193 195 193 194 196 195 195 195 192 190 191 192 191 190 191 192 190 189 190 193 194 195 196 197 198 199 200 201 203 205 207 209 210 209 208 206 201 199 203 205 204 203 204 203 203 206 209 209 208 210 213 216
174 180 178 181 185 185 188 191 188 185 188 192 191 189 190 190 195 201 200 195 194 195 193 192 192 193 192 189 187 189 192 193 194 196 197 197 198 200 201 203 205 207 209 210 209 209 209 205 200 201 204 204 204 204 203 203 204 207 210 210 211 212 213
169 185 185 174 179 186 185 187 189 188 191 188 175 180 187 184 190 208 212 203 197 197 195 193 194 194 192 189 187 188 189 190 192 194 195 196 198 199 201 203 205 206 208 210 209 208 209 209 205 203 203 204 204 204 203 202 202 203 207 210 212 212 212
170 184 187 173 174 181 181 187 190 187 186 175 161 176 190 188 186 202 223 217 202 197 197 195 193 193 191 188 188 188 187 187 190 193 194 195 197 199 201 203 205 206 207 208 209 208 208 209 208 207 205 205 205 205 205 204 203 202 205 208 211 213 213
180 185 181 169 170 177 180 185 186 183 181 175 168 174 186 191 190 197 213 219 209 200 198 196 194 192 190 189 188 187 186 186 188 190 192 193 195 198 200 202 204 205 206 207 208 208 208 208 207 208 208 207 207 207 207 207 204 202 204 207 210 212 213
188 184 172 162 165 174 176 180 182 179 179 180 178 177 182 189 195 199 205 210 210 206 200 196 195 192 189 189 188 186 185 185 186 188 190 192 195 197 199 200 202 204 205 207 207 207 207 207 206 207 209 208 209 208 208 208 206 204 204 207 210 212 213
197 174 165 161 162 170 176 180 182 177 178 181 182 182 184 189 195 199 200 202 207 210 204 197 194 192 190 189 188 185 184 185 186 187 189 192 195 197 199 199 199 201 202 205 206 205 205 205 206 206 208 209 210 210 209 208 207 205 205 207 210 212 214
216 166 157 158 159 169 180 180 178 178 179 181 182 184 187 191 196 198 196 198 202 208 208 201 194 193 190 188 188 186 185 186 186 187 189 191 195 196 198 199 199 199 200 203 205 205 204 204 205 206 207 208 210 210 210 209 208 207 206 207 209 211 212
223 165 156 153 157 166 172 172 175 177 177 181 185 187 188 191 196 196 193 195 198 203 209 205 197 192 189 188 189 187 187 187 187 188 189 191 194 195 196 198 199 199 200 202 204 205 205 203 203 205 207 208 209 210 210 209 208 208 207 206 208 210 211
83 155 152 141 146 157 161 163 172 175 176 182 187 190 190 190 194 195 192 195 198 201 208 207 199 192 189 188 189 188 188 189 189 189 190 191 193 195 195 197 199 199 199 200 202 204 206 204 202 203 206 208 208 209 210 209 208 208 208 208 208 209 210
67 111 144 133 130 142 154 158 167 174 179 185 188 193 193 189 190 193 193 195 199 203 209 208 200 193 189 188 190 189 188 189 189 189 191 192 193 195 196 197 198 199 199 198 200 203 205 206 204 201 202 206 208 208 208 208 208 208 209 208 209 210 210
51 38 77 117 107 106 135 161 173 176 181 187 190 194 196 190 188 191 191 192 196 202 210 210 200 193 190 190 190 189 188 188 189 189 191 192 194 195 197 198 199 200 200 198 199 202 204 207 207 202 200 204 206 207 208 209 209 209 210 210 210 210 210
36 36 44 62 67 33 12 343 183 172 180 193 194 194 194 188 187 192 196 196 196 198 207 211 203 194 192 191 190 188 187 188 188 189 191 192 193 195 196 198 199 200 201 200 199 201 203 205 207 205 201 201 204 205 207 210 212 211 211 212 212 211 211
14 21 36 64 75 31 7 360 8 45 131 160 174 211 223 210 195 195 198 200 198 196 204 211 206 197 194 191 188 187 187 188 188 189 190 191 192 194 196 199 199 200 202 202 199 199 201 204 207 208 204 201 202 205 207 210 213 214 212 212 213 213 213
4 13 14 18 31 20 6 3 6 8 18 87 155 202 239 262 245 218 206 206 203 195 200 210 206 197 194 191 188 187 187 188 189 189 190 191 192 193 195 197 200 200 201 203 201 199 200 203 206 209 209 204 202 204 208 211 214 215 214 213 214 215 214
6 15 14 3 358 360 356 353 353 346 337 328 222 204 211 222 228 223 213 213 217 204 200 207 204 193 192 192 189 188 188 188 190 190 191 192 192 192 194 196 199 201 200 201 201 200 200 202 206 209 212 211 206 205 207 211 214 216 216 216 216 217 216
2 5 6 357 346 344 342 333 330 329 323 318 309 272 235 223 225 225 210 210 227 227 212 208 202 190 189 191 188 187 189 190 191 192 192 191 191 192 194 196 198 200 201 200 201 202 201 202 205 208 211 214 214 210 208 211 214 216 217 218 218 219 218
353 352 351 345 336 331 327 322 319 318 313 302 293 281 262 243 235 231 216 206 214 223 221 217 209 192 186 189 188 187 189 191 192 193 192 191 191 192 193 195 197 199 200 200 201 203 202 202 205 208 210 213 216 216 214 215 217 217 217 218 219 218 218
346 344 341 336 330 323 318 315 308 300 294 287 277 269 263 252 238 229 224 215 208 208 210 219 220 200 186 188 190 188 190 192 193 194 193 192 192 193 193 195 196 198 199 200 200 201 201 202 205 208 210 211 213 216 218 218 219 220 219 219 218 215 215
343 338 334 331 326 319 314 309 303 296 291 287 283 276 262 253 246 234 222 214 212 208 203 210 218 208 192 190 191 190 190 192 193 194 193 193 193 194 194 195 196 197 198 199 200 199 200 201 204 207 210 211 212 214 216 219 221 223 221 220 217 214 213
338 333 329 326 321 317 314 311 307 299 291 284 280 275 261 248 245 241 225 209 209 211 206 208 212 206 195 192 192 191 191 191 193 193 194 195 195 195 195 194 194 196 197 199 201 200 201 202 203 207 210 212 213 212 213 217 222 223 223 221 217 212 212
335 330 326 322 320 318 315 310 303 295 285 277 270 266 262 244 232 234 229 212 206 209 209 211 210 204 197 193 191 191 190 190 193 194 194 194 194 193 194 193 193 195 196 199 201 201 201 202 203 207 210 211 213 212 212 215 220 223 223 221 218 214 211
334 330 324 321 320 317 312 305 298 290 283 281 274 267 264 249 230 228 222 208 205 210 209 209 207 200 194 191 189 190 190 190 192 193 192 193 191 191 192 192 193 195 196 198 200 201 202 203 203 206 209 209 211 212 212 213 217 221 223 222 221 218 212
336 332 327 324 320 316 314 309 302 294 286 284 280 271 263 250 236 232 219 204 205 212 210 206 200 193 190 189 189 190 189 190 191 190 189 191 191 191 193 192 192 194 195 197 200 201 202 203 204 206 208 208 210 212 213 213 215 219 222 223 222 220 215
337 332 327 325 320 317 315 309 300 295 293 293 289 281 271 251 233 234 230 211 206 209 208 201 193 188 187 187 188 189 189 188 188 189 191 194 192 191 192 191 192 194 195 196 199 200 201 203 204 206 208 207 208 211 213 214 215 218 221 223 223 221 219
336 330 326 323 317 313 311 305 299 297 295 291 286 284 285 267 236 230 233 220 207 203 199 192 185 183 183 184 185 187 188 188 188 190 194 196 193 191 191 190 192 195 195 196 198 198 199 200 202 205 208 208 208 211 213 214 215 218 220 221 222 222 221
330 327 325 320 313 310 307 302 299 297 293 288 286 295 301 284 248 229 228 218 203 193 188 183 179 178 179 181 184 185 185 187 190 194 197 197 194 192 191 190 192 194 193 193 196 196 196 197 199 202 207 210 210 210 211 211 212 216 219 220 222 223 222
327 326 324 319 312 309 306 303 298 294 295 298 303 316 314 289 249 229 227 211 193 184 181 177 175 176 177 179 182 184 184 185 190 196 200 200 197 194 193 191 193 193 191 190 194 195 193 194 196 199 204 209 210 210 210 210 210 213 216 218 220 223 223
325 322 319 313 307 305 305 305 302 298 301 309 315 322 324 308 255 224 216 198 183 179 177 173 172 174 175 176 180 183 184 186 190 196 202 202 197 194 194 194 193 193 189 188 191 194 193 192 192 195 200 206 209 210 209 210 210 211 213 214 216 219 221
315 316 316 310 305 305 309 311 308 304 302 308 315 320 329 331 307 212 192 183 177 173 170 170 172 173 174 175 178 183 186 188 193 198 202 200 195 193 194 194 194 194 190 188 190 192 192 192 193 194 198 202 204 206 207 210 211 211 212 213 215 215 216
314 317 317 311 305 307 315 317 314 309 302 304 317 323 329 340 347 199 178 180 177 169 165 167 171 172 173 175 177 183 188 190 194 199 200 196 191 190 192 193 195 195 192 191 193 194 193 193 194 197 199 200 200 201 203 207 211 213 215 217 216 216 216
319 320 317 312 308 312 322 326 322 314 303 301 318 327 330 342 357 14 145 183 182 170 163 165 169 171 174 177 181 184 188 190 193 196 198 195 185 179 180 184 189 191 190 191 195 196 196 196 197 199 200 201 203 204 205 210 213 213 215 218 217 216 218
319 318 316 316 315 318 332 338 330 319 310 307 320 331 334 341 358 14 18 313 214 181 169 167 171 175 177 180 185 187 188 192 194 193 195 193 179 170 167 164 170 179 184 188 192 194 197 199 200 202 202 203 206 208 208 212 214 211 213 217 217 214 215
319 321 325 329 328 329 343 346 333 322 319 325 330 332 332 338 356 14 15 349 330 229 179 172 173 180 184 187 190 189 188 191 192 192 193 185 171 168 167 158 152 158 167 177 186 191 196 199 200 202 204 205 207 208 206 206 208 208 211 214 213 209 208